Waterloo, IA

1:16 PM CDT on July 20, 2017 (GMT -0500)
Waterloo Municipal

Weather History for KALO - March, 2013

Change the Weather History Date:

Wednesday, March 20, 2013

  Actual Average Record
Temperature  
Mean Temperature 17 °F 38 °F  
Max Temperature 23 °F 48 °F 74 °F (1938)
Min Temperature 10 °F 28 °F 2 °F (1951)
Degree Days  
Heating Degree Days 48 27  
Month to date heating degree days 820 632  
Since 1 July heating degree days 6030 6051  
Cooling Degree Days 0 0  
Month to date cooling degree days 0 0  
Year to date cooling degree days 0 0  
Moisture  
Dew Point 5 °F    
Average Humidity 61    
Maximum Humidity 73    
Minimum Humidity 49    
Precipitation  
Precipitation 0.00 in 0.07 in 0.66 in (2011)
Month to date precipitation 2.45 1.20  
Year to date precipitation 5.53 3.02  
Snow  
Snow 0.00 in 0.10 in 4.50 in (1984)
Month to date snowfall 10.0 3.3  
Since 1 July snowfall 47.1 32.2  
Snow Depth 1.00 in    
Sea Level Pressure  
Sea Level Pressure 30.23 in    
Wind  
Wind Speed 18 mph (NW)    
Max Wind Speed 33 mph    
Max Gust Speed 43 mph    
Visibility 10 miles    
Events      
T = Trace of Precipitation, MM = Missing Value Source: NWS Daily Summary

Daily Weather History Graph

Daily Weather History Graph

Search for Another Location

Airport or City:

Trip Planner

Search our weather history database for the weather conditions in past years. The results will help you decide how hot, cold, wet, or windy it might be!

Date:

Astronomy

Mar. 20, 2013 Rise Set
Actual Time 7:12 AM CDT 7:22 PM CDT
Civil Twilight 6:44 AM CDT 7:50 PM CDT
Nautical Twilight 6:11 AM CDT 8:23 PM CDT
Astronomical Twilight 5:37 AM CDT 8:57 PM CDT
Moon 12:50 PM CDT 2:59 AM CDT
Length of Visible Light 13h 06m
Length of Day
12h 09m
First Quarter, 59% of the Moon is Illuminated
Mar 20
First Quarter
Mar 27
Full
Apr 2
Last Quarter
Apr 10
New
Apr 18
First Quarter

Hourly Weather History & Observations

Time (CDT) Temp. Windchill Dew Point Humidity Pressure Visibility Wind Dir Wind Speed Gust Speed Precip Events Conditions
12:54 AM 14.0 °F -2.5 °F 5.0 °F 67% 30.25 in 10.0 mi WNW 17.3 mph 24.2 mph N/A   Clear
1:54 AM 12.9 °F -3.4 °F 3.9 °F 67% 30.26 in 10.0 mi WNW 16.1 mph 25.3 mph N/A   Clear
2:54 AM 12.9 °F -4.9 °F 5.0 °F 71% 30.26 in 10.0 mi NW 19.6 mph 27.6 mph N/A   Clear
3:54 AM 12.0 °F -5.6 °F 5.0 °F 73% 30.26 in 10.0 mi NW 18.4 mph 25.3 mph N/A   Clear
4:54 AM 10.9 °F -8.8 °F 3.0 °F 70% 30.26 in 10.0 mi NW 23.0 mph 27.6 mph N/A   Clear
5:54 AM 10.9 °F -7.9 °F 3.0 °F 70% 30.26 in 10.0 mi WNW 20.7 mph 31.1 mph N/A   Clear
6:54 AM 10.0 °F -5.9 °F 1.0 °F 67% 30.28 in 10.0 mi NW 13.8 mph 21.9 mph N/A   Clear
7:54 AM 10.0 °F -6.5 °F 1.9 °F 70% 30.28 in 10.0 mi WNW 15.0 mph - N/A   Clear
8:54 AM 12.0 °F -6.0 °F 1.9 °F 64% 30.28 in 10.0 mi NW 19.6 mph 36.8 mph N/A   Clear
9:54 AM 14.0 °F -4.3 °F 3.0 °F 62% 30.27 in 10.0 mi NW 21.9 mph 29.9 mph N/A   Clear
10:54 AM 17.1 °F -0.6 °F 3.0 °F 54% 30.27 in 10.0 mi NW 23.0 mph 40.3 mph N/A   Clear
11:54 AM 19.9 °F 3.2 °F 5.0 °F 52% 30.27 in 10.0 mi NW 23.0 mph 36.8 mph N/A   Clear
12:54 PM 19.9 °F 1.5 °F 3.9 °F 50% 30.25 in 10.0 mi NW 28.8 mph 36.8 mph N/A   Clear
1:54 PM 19.9 °F 3.2 °F 5.0 °F 52% 30.23 in 10.0 mi WNW 23.0 mph 28.8 mph N/A   Clear
2:54 PM 21.9 °F 5.8 °F 7.0 °F 53% 30.20 in 10.0 mi NW 23.0 mph 32.2 mph N/A   Scattered Clouds
3:54 PM 23.0 °F 8.7 °F 7.0 °F 50% 30.19 in 10.0 mi WNW 18.4 mph 33.4 mph N/A   Partly Cloudy
4:54 PM 21.9 °F 6.9 °F 6.1 °F 51% 30.18 in 10.0 mi WNW 19.6 mph 28.8 mph N/A   Partly Cloudy
5:54 PM 21.9 °F 7.3 °F 7.0 °F 53% 30.17 in 10.0 mi WNW 18.4 mph 26.5 mph N/A   Clear
6:54 PM 19.9 °F 7.3 °F 7.0 °F 57% 30.17 in 10.0 mi WNW 12.7 mph 24.2 mph N/A   Scattered Clouds
7:54 PM 18.0 °F 4.2 °F 6.1 °F 60% 30.17 in 10.0 mi NW 13.8 mph - N/A   Clear
8:54 PM 17.1 °F 3.6 °F 8.1 °F 68% 30.17 in 10.0 mi NW 12.7 mph - N/A   Clear
9:54 PM 16.0 °F 1.1 °F 6.1 °F 65% 30.18 in 10.0 mi NNW 15.0 mph - N/A   Clear
10:54 PM 14.0 °F -0.8 °F 5.0 °F 67% 30.18 in 10.0 mi NNW 13.8 mph - N/A   Clear
11:54 PM 12.9 °F -0.9 °F 5.0 °F 71% 30.17 in 10.0 mi NNW 11.5 mph - N/A   Clear